This demonstration page uses our WeatherBlox Daily Observations layout. Learn more.

Left ArrowRight Arrow

34.02893, -84.19858

Hourly Observations for November 8, 2019

Temp ( °F °C ) Dew Point ( °F °C ) Humidity (%) Winds ( mph kmh ) Pressure ( in mb ) Visibility ( mi km ) Precip ( " mm )
12:24 am 00:24 Cloudy 56 13.3 54 12.2 93 93 NW 7 11 30.09 1019 10 16 0.00 0.00
12:39 am 00:39 Mostly Cloudy 56 13.3 54 12.2 93 93 NW 8 13 30.09 1019 10 16 0.00 0.00
12:51 am 00:51 Cloudy 55 13 54 12 94 94 NW 9 15 30.10 1019 10 16 0.00 0.00
12:53 am 00:53 Cloudy 56 13.3 54 12.2 93 93 NW 9 15 30.08 1019 10 16 0.00 0.00
1:10 am 01:10 Cloudy 55 12.8 54 12.2 96 96 NW 12 19 30.10 1019 10 16 0.00 0.00
1:51 am 01:51 Mostly Cloudy 54 12 52 11 94 94 NW 12 19 30.09 1019 10 16 0.00 0.00
1:53 am 01:53 Mostly Cloudy 54 12.2 52 11.1 93 93 NW 10 17 30.08 1019 10 16 0.00 0.00
2:07 am 02:07 Partly Cloudy 53 11.7 51 10.6 93 93 NW 9 15 30.10 1019 10 16 0.00 0.00
2:11 am 02:11 Mostly Cloudy 53 11.7 51 10.6 93 93 NNW 12 19 30.09 1019 10 16 0.00 0.00
2:53 am 02:53 Cloudy 51 10.6 49 9.4 92 92 NNW 12 19 30.09 1019 10 16 0.00 0.00
3:28 am 03:28 Cloudy 51 10.6 48 8.9 89 89 NW 13 20 30.12 1020 10 16 0.00 0.00
3:53 am 03:53 Mostly Cloudy 50 10 47 8.3 89 89 NNW 9 15 30.11 1020 10 16 0.00 0.00
4:53 am 04:53 Mostly Cloudy 49 9.4 46 7.8 90 90 NNW 13 20 30.13 1020 10 16 0.00 0.00
5:46 am 05:46 Partly Cloudy 47 8.3 43 6.1 86 86 NNW 15 24 30.17 1022 10 16 0.00 0.00
5:53 am 05:53 Mostly Clear 47 8.3 43 6.1 86 86 NW 17 28 30.15 1021 10 16 0.00 0.00
6:53 am 06:53 Mostly Clear 44 6.7 41 5 89 89 NNW 12 19 30.19 1022 10 16 0.00 0.00
7:53 am 07:53 Mostly Sunny 44 6.7 39 3.9 83 83 NW 10 17 30.21 1023 10 16 0.00 0.00
8:53 am 08:53 Sunny 44 6.7 38 3.3 79 79 NW 15 24 30.22 1023 10 16 0.00 0.00
10:53 am 10:53 Sunny 49 9.4 37 2.8 64 64 N 10 17 30.23 1024 10 16 0.00 0.00
11:53 am 11:53 Sunny 52 11.1 37 2.8 57 57 WNW 12 19 30.20 1023 10 16 0.00 0.00
12:53 pm 12:53 Sunny 52 11.1 35 1.7 53 53 NNW 9 15 30.17 1022 10 16 0.00 0.00
1:53 pm 13:53 Sunny 52 11.1 36 2.2 55 55 WNW 9 15 30.16 1022 10 16 0.00 0.00
2:53 pm 14:53 Sunny 50 10 35 1.7 57 57 NW 13 20 30.16 1022 10 16 0.00 0.00
3:53 pm 15:53 Sunny 50 10 35 1.7 57 57 VRB 7 11 30.17 1022 10 16 0.00 0.00
4:53 pm 16:53 Sunny 48 8.9 34 1.1 58 58 NNW 9 15 30.19 1022 10 16 0.00 0.00
5:53 pm 17:53 Clear 46 7.8 33 0.6 61 61 NW 5 7 30.21 1023 10 16 0.00 0.00
6:53 pm 18:53 Clear 43 6.1 31 -0.6 63 63 WNW 6 9 30.24 1024 10 16 0.00 0.00
7:53 pm 19:53 Clear 42 5.6 30 -1.1 62 62 NW 7 11 30.25 1024 10 16 0.00 0.00
8:53 pm 20:53 Clear 37 2.8 32 0 82 82 N 3 6 30.26 1025 10 16 0.00 0.00
9:53 pm 21:53 Clear 37 2.8 31 -0.6 79 79 NNE 3 6 30.26 1025 10 16 0.00 0.00
10:53 pm 22:53 Clear 35 1.7 32 0 89 89 N 5 7 30.27 1025 10 16 0.00 0.00
11:53 pm 23:53 Clear 37 2.8 33 0.6 86 86 E 3 6 30.27 1025 10 16 0.00 0.00

Powered by AerisWeather